Hourly Data Report for June 27, 2021

LYTTON RCS
BRITISH COLUMBIA
Current Station Operator: ECCC - MSC

50°13'28.000" N
121°34'55.000" W
225.00 m
1114746
71765
VLY

Download Data

Hourly Data (June 2021)
Hourly Data Report for June 27, 2021
TIME
LST
Temp Definition
°C
Dew Point Definition
°C
Rel Hum Definition
%
Precip. Amount Definition
mm

Wind Dir Definition
10's deg

Wind Spd Definition
km/h
Visibility Definition
km
Stn Press Definition
kPa
Hmdx Definition


Wind Chill Definition


Weather Definition


00:00 27.7 13.6 42 0.0 19 7   98.83 31   LegendNANA
01:00 26.6 14.1 46 0.0 15 4   98.90 30   LegendNANA
02:00 24.3 13.9 52 0.0 14 5   98.95 28   LegendNANA
03:00 23.2 14.1 57 0.0 15 7   98.99 27   LegendNANA
04:00 21.3 14.1 64 0.0 16 3   99.04 25   LegendNANA
05:00 20.7 14.1 66 0.0 16 3   99.07     LegendNANA
06:00 20.7 14.5 68 0.0 15 3   99.10     LegendNANA
07:00 22.9 14.2 58 0.0 14 6   99.09 26   LegendNANA
08:00 27.3 14.0 44 0.0 15 9   99.04 31   LegendNANA
09:00 31.2 13.7 34 0.0 17 3   98.96 34   LegendNANA
10:00 34.3 12.3 27 0.0 19 3   98.86 37   LegendNANA
11:00 37.0 13.2 24 0.0 20 3   98.74 40   LegendNANA
12:00 41.3 13.3 19 0.0 17 8   98.61 44   LegendNANA
13:00 43.4 11.8 16 0.0 18 7   98.48 46   LegendNANA
14:00 46.1 9.4 12 0.0 17 10   98.39 47   LegendNANA
15:00 45.5 8.0 11 0.0 18 7   98.30 46   LegendNANA
16:00 46.2 7.9 10 0.0 18 10   98.24 47   LegendNANA
17:00 45.6 9.1 12 0.0 18 10   98.17 46   LegendNANA
18:00 42.6 9.3 14 0.0 17 8   98.13 44   LegendNANA
19:00 38.6 10.1 18 0.0 15 12   98.12 40   LegendNANA
20:00 33.4 12.6 28 0.0 15 8   98.15 36   LegendNANA
21:00 31.2 13.0 33 0.0 14 7   98.23 34   LegendNANA
22:00 29.4 12.4 35 0.0 16 6   98.29 32   LegendNANA
23:00 28.5 12.3 37 0.0 13 3   98.36 31   LegendNANA

Notes on Data Quality.

Legend

  • E = Estimated
  • M = Missing
  • NA = Not Available*
  • [empty] = Indicates an unobserved value
Date modified: